"Time","Temp","Dewpoint","Humidity","Pressure","Direction","Speed","Gust","Precip","PrecipRate"
"00:04:57","52.9","51.5","95","30.10","233","0","0","0.00","0.00"
"00:09:59","52.8","51.4","95","30.10","233","0","0","0.00","0.00"
"00:14:59","52.6","51.2","95","30.10","233","0","0","0.00","0.00"
"00:19:56","52.6","51.2","95","30.10","233","0","0","0.00","0.00"
"00:24:59","52.4","51","95","30.10","233","0","0","0.00","0.00"
"00:29:56","52.3","50.9","95","30.10","233","0","0","0.00","0.00"
"00:34:58","52.2","50.8","95","30.10","233","0","0","0.00","0.00"
"00:39:57","52.1","50.7","95","30.10","233","0","0","0.00","0.00"
"00:44:56","52","50.6","95","30.10","233","0","0","0.00","0.00"
"00:49:59","51.9","50.5","95","30.10","233","0","0","0.00","0.00"
"00:54:57","51.8","50.4","95","30.10","233","0","0","0.00","0.00"
"00:59:58","51.7","50.3","95","30.10","233","0","0","0.00","0.00"
"01:04:56","51.7","50.5","95.6","30.10","233","0","0","0.00","0.00"
"01:09:57","51.7","50.6","96","30.10","233","0","0","0.00","0.00"
"01:14:58","51.7","50.6","96","30.10","233","0","0","0.00","0.00"
"01:19:59","51.7","50.6","96","30.10","233","0","0","0.00","0.00"
"01:24:56","51.6","50.5","96","30.10","233","0","0","0.00","0.00"
"01:29:59","51.5","50.3","95.9","30.10","233","0","0","0.00","0.00"
"01:34:59","51.3","49.9","95","30.10","233","0","0","0.00","0.00"
"01:39:59","51.2","49.8","95","30.10","233","0","0","0.00","0.00"
"01:44:59","51","49.7","95.4","30.10","233","0","0","0.00","0.00"
"01:49:59","50.9","49.8","96","30.10","233","0","0","0.00","0.00"
"01:54:56","50.8","49.7","96","30.10","233","0","0","0.00","0.00"
"01:59:56","50.8","49.7","96","30.10","233","0","0","0.00","0.00"
"02:04:57","50.7","49.6","96","30.10","233","0","0","0.00","0.00"
"02:09:56","50.6","49.5","96","30.10","233","0","0","0.00","0.00"
"02:14:59","50.5","49.4","96","30.10","233","0","0","0.00","0.00"
"02:19:59","50.5","49.4","96","30.10","233","0","0","0.00","0.00"
"02:24:59","50.5","49.4","96","30.10","233","0","0","0.00","0.00"
"02:29:59","50.6","49.5","96","30.10","233","0","0","0.00","0.00"
"02:34:57","50.6","49.5","96","30.10","233","0","0","0.00","0.00"
"02:39:56","50.4","49.3","96","30.10","233","0","0","0.00","0.00"
"02:44:57","50.3","49.2","96","30.10","233","0","0","0.00","0.00"
"02:49:58","50.2","49.1","96","30.09","233","0","0","0.00","0.00"
"02:54:57","50.1","49","96","30.09","233","0","0","0.00","0.00"
"02:59:56","50","48.9","96","30.09","233","0","0","0.00","0.00"
"03:04:58","50","48.9","96","30.09","233","0","0","0.00","0.00"
"03:09:57","49.9","48.8","96","30.09","233","0","0","0.00","0.00"
"03:14:57","49.9","48.8","96","30.09","233","0","0","0.00","0.00"
"03:19:57","49.9","48.8","96","30.09","233","0","0","0.00","0.00"
"03:24:59","49.9","48.8","96","30.09","233","0","0","0.00","0.00"
"03:29:58","49.7","48.6","96","30.09","233","0","0","0.00","0.00"
"03:34:57","49.6","48.5","96","30.09","233","0","0","0.00","0.00"
"03:39:58","49.6","48.5","96","30.09","233","0","0","0.00","0.00"
"03:44:59","49.4","48.3","96","30.09","233","0","0","0.00","0.00"
"03:49:56","49.5","48.5","96.4","30.09","233","0","0","0.00","0.00"
"03:54:57","49.6","48.8","97","30.09","233","0","0","0.00","0.00"
"03:59:55","49.6","48.5","96.3","30.09","233","0","0","0.00","0.00"
"04:04:57","49.5","48.4","96","30.09","233","0","0","0.00","0.00"
"04:09:56","49.5","48.5","96.5","30.09","233","0","0","0.00","0.00"
"04:14:58","49.4","48.6","97","30.09","233","0","0","0.00","0.00"
"04:19:58","49.4","48.5","96.5","30.09","233","0","0","0.00","0.00"
"04:24:56","49.4","48.6","97","30.09","233","0","0","0.00","0.00"
"04:29:57","49.4","48.4","96.5","30.09","233","0","0","0.00","0.00"
"04:34:58","49.3","48.3","96.3","30.09","233","0","0","0.00","0.00"
"04:39:59","49.3","48.2","96","30.09","233","0","0","0.00","0.00"
"04:44:57","49.1","48","96","30.09","233","0","0","0.00","0.00"
"04:49:58","49","47.9","96","30.08","233","0","0","0.00","0.00"
"04:54:58","48.9","47.8","96","30.08","233","0","0","0.00","0.00"
"04:59:58","48.8","47.7","96","30.08","233","0","0","0.00","0.00"
"05:04:59","48.7","47.6","96","30.08","233","0","0","0.00","0.00"
"05:09:58","48.6","47.5","96","30.08","233","0","0","0.00","0.00"
"05:14:59","48.5","47.4","96","30.08","233","0","0","0.00","0.00"
"05:19:56","48.4","47.3","96","30.08","233","0","0","0.00","0.00"
"05:24:58","48.4","47.3","96","30.08","233","0","0","0.00","0.00"
"05:29:56","48.4","47.5","96.8","30.09","233","0","0","0.00","0.00"
"05:34:57","48.4","47.6","97","30.09","233","0","0","0.00","0.00"
"05:39:59","48.4","47.6","97","30.09","233","0","0","0.00","0.00"
"05:44:57","48.4","47.6","97","30.09","233","0","0","0.00","0.00"
"05:49:58","48.4","47.6","97","30.09","233","0","0","0.00","0.00"
"05:54:59","48.3","47.5","97","30.09","233","0","0","0.00","0.00"
"05:59:56","48.3","47.5","97","30.09","233","0","0","0.00","0.00"
"06:04:57","48.3","47.5","97","30.09","233","0","0","0.00","0.00"
"06:09:57","48.2","47.4","97","30.09","233","0","0","0.00","0.00"
"06:14:58","48.1","47.2","96.8","30.10","233","0","0","0.00","0.00"
"06:19:59","48.1","47.3","97","30.10","233","0","0","0.00","0.00"
"06:24:57","48.1","47","96.1","30.10","233","0","0","0.00","0.00"
"06:29:56","48","46.9","96","30.10","233","0","0","0.00","0.00"
"06:34:56","47.8","46.7","96","30.10","233","0","0","0.00","0.00"
"06:39:58","47.7","46.9","96.7","30.10","233","0","0","0.00","0.00"
"06:44:57","47.7","46.9","97","30.10","233","0","0","0.00","0.00"
"06:49:56","47.7","46.9","97","30.10","233","0","0","0.00","0.00"
"06:54:59","47.7","46.9","97","30.10","233","0","0","0.00","0.00"
"06:59:56","47.6","46.8","97","30.10","233","0","0","0.00","0.00"
"07:04:58","47.7","46.9","97","30.10","233","0","0","0.00","0.00"
"07:09:56","47.8","47","97","30.10","233","0","0","0.00","0.00"
"07:14:56","47.9","47.1","97","30.10","233","0","0","0.00","0.00"
"07:19:58","47.8","47","97","30.10","233","0","0","0.00","0.00"
"07:24:58","47.7","46.9","97","30.10","233","0","0","0.00","0.00"
"07:29:58","47.7","46.9","97","30.10","233","0","0","0.00","0.00"
"07:34:57","47.8","47.1","97.2","30.10","233","0","0","0.00","0.00"
"07:39:58","48.1","47.6","97.9","30.10","233","0","0","0.00","0.00"
"07:44:58","48.3","47.5","97","30.10","233","0","0","0.00","0.00"
"07:49:56","48.6","47.8","97","30.10","233","0","0","0.00","0.00"
"07:54:59","49","48.3","97.4","30.10","233","0","0","0.00","0.00"
"07:59:58","49.6","49.1","98","30.10","233","0.1","2","0.00","0.00"
"08:04:58","50","49.5","98","30.10","233","0.3","2.3","0.00","0.00"
"08:09:57","50.5","50","98","30.10","233","0","0","0.00","0.00"
"08:14:59","51.2","50.7","98","30.10","233","0","0","0.00","0.00"
"08:19:56","51.9","51.4","98","30.10","233","0.1","1.2","0.00","0.00"
"08:24:58","52.6","52.1","98","30.10","233","0.2","2.3","0.00","0.00"
"08:29:56","53.2","52.6","97.6","30.10","304","0.5","4","0.00","0.00"
"08:34:57","53.7","52.7","96.3","30.10","334","0.4","2.3","0.00","0.00"
"08:39:57","54.1","52.7","95.1","30.10","334","0.6","2.3","0.00","0.00"
"08:44:59","54.6","53.1","94.8","30.10","335","0.1","1.2","0.00","0.00"
"08:49:56","55.1","53.2","93.5","30.10","335","0.4","2.3","0.00","0.00"
"08:54:59","55.6","53.7","93.1","30.10","335","0","1.2","0.00","0.00"
"08:59:56","56.1","53.5","91.1","30.10","40","0","0","0.00","0.00"
"09:04:59","56.5","53.8","90.8","30.10","40","0","0","0.00","0.00"
"09:09:58","57","54.3","90.4","30.10","39","0","0","0.00","0.00"
"09:14:58","57.6","54.6","89.5","30.10","16","0","0","0.00","0.00"
"09:19:57","58.2","54.7","87.9","30.10","15","0","0","0.00","0.00"
"09:24:56","58.8","54.6","86","30.10","2","0.9","3.5","0.00","0.00"
"09:29:57","59.4","55","85.2","30.10","338","1","3.5","0.00","0.00"
"09:34:57","60.2","55.4","84.3","30.10","326","1.2","4","0.00","0.00"
"09:39:56","60.8","55.2","81.6","30.10","329","1.2","3.5","0.00","0.00"
"09:44:59","61.4","55.5","80.8","30.10","259","1","4","0.00","0.00"
"09:49:58","62.1","55.6","79.2","30.09","294","0.9","4","0.00","0.00"
"09:54:58","62.7","54.6","74.8","30.09","290","1.4","3.5","0.00","0.00"
"09:59:56","63.1","54.9","74.7","30.10","282","1.1","3.5","0.00","0.00"
"10:04:56","63.6","55.1","74","30.10","294","1.4","4","0.00","0.00"
"10:09:58","64","55.5","73.7","30.10","267","0.8","3.5","0.00","0.00"
"10:14:57","64.6","55.6","72.7","30.10","267","1.2","3.5","0.00","0.00"
"10:19:58","65.1","55.7","71.5","30.10","336","1.4","3.5","0.00","0.00"
"10:24:59","65.6","56.1","71.7","30.10","327","0.4","3.5","0.00","0.00"
"10:29:59","66.3","57.2","72.6","30.10","317","0.1","2.3","0.00","0.00"
"10:34:58","66.8","56.3","69","30.10","319","0.2","3","0.00","0.00"
"10:39:57","67.2","56.5","68.5","30.10","312","0.9","4","0.00","0.00"
"10:44:57","67.4","57.1","69.5","30.10","278","1.1","3","0.00","0.00"
"10:49:56","67.8","55.2","64.1","30.09","338","1.7","5","0.00","0.00"
"10:54:59","68.2","55.5","63.9","30.09","355","0.4","2.3","0.00","0.00"
"10:59:56","68.9","55.4","62.3","30.09","355","0.4","2.3","0.00","0.00"
"11:04:58","69.6","55.7","61.3","30.09","307","1.3","4","0.00","0.00"
"11:09:58","70","54.6","58.3","30.09","192","0.3","3.5","0.00","0.00"
"11:14:56","70.3","55.1","58.7","30.09","185","0.8","3.5","0.00","0.00"
"11:19:59","70.6","56.2","60.5","30.08","182","1.3","5","0.00","0.00"
"11:24:59","71","56.4","60","30.08","189","2","4.6","0.00","0.00"
"11:29:55","71.2","56.1","58.9","30.08","184","0.3","4","0.00","0.00"
"11:34:58","71.5","56.5","59.2","30.08","216","1.6","4","0.00","0.00"
"11:39:58","71.8","57.5","60.8","30.08","173","0.5","3.5","0.00","0.00"
"11:44:59","72.3","57.4","59.4","30.08","173","0.8","4","0.00","0.00"
"11:49:57","72.7","57.4","58.6","30.07","312","1","3.5","0.00","0.00"
"11:54:57","72.7","57.2","58.2","30.07","77","1.7","4","0.00","0.00"
"11:59:57","72.6","56.7","57.4","30.07","183","2.3","4","0.00","0.00"
"12:04:57","72.5","57.6","59.5","30.07","187","1.6","3.5","0.00","0.00"
"12:09:56","72.5","57.5","59.3","30.07","227","1.2","4","0.00","0.00"
"12:14:58","72.6","57.9","60.1","30.07","316","1.1","4","0.00","0.00"
"12:19:57","72.9","58.3","60.3","30.06","251","0.6","3","0.00","0.00"
"12:24:57","73.2","57.9","58.8","30.06","217","1.1","5","0.00","0.00"
"12:29:58","73.5","58.6","59.8","30.06","211","3.1","7","0.00","0.00"
"12:34:57","73.5","58.9","60.2","30.05","213","1","3","0.00","0.00"
"12:39:59","73.5","57.9","58.1","30.05","222","1.6","5","0.00","0.00"
"12:44:56","73.5","57.9","58.2","30.05","187","2.7","6","0.00","0.00"
"12:49:58","73.5","58.1","58.6","30.05","197","1.5","5","0.00","0.00"
"12:54:58","73.5","57.6","57.6","30.05","286","1.5","4.6","0.00","0.00"
"12:59:56","73.4","57.4","57.4","30.05","283","2.1","6","0.00","0.00"
"13:04:57","73.2","57.4","57.8","30.04","215","2","4.6","0.00","0.00"
"13:09:55","73.3","58.2","59.1","30.04","204","2.3","5","0.00","0.00"
"13:14:56","73.8","57.6","56.9","30.04","189","2.9","6","0.00","0.00"
"13:19:56","74.5","57.9","56.3","30.04","189","2.2","5","0.00","0.00"
"13:24:58","75","57.6","54.7","30.04","188","2.2","6","0.00","0.00"
"13:29:58","75.4","57.8","54.3","30.04","176","3.1","7","0.00","0.00"
"13:34:57","75.2","57.3","53.7","30.03","217","2.9","6","0.00","0.00"
"13:39:58","74.8","56.6","53.1","30.03","213","2.8","6","0.00","0.00"
"13:44:59","74.4","56","52.7","30.03","194","2.6","5.8","0.00","0.00"
"13:49:59","74.6","56.5","53.4","30.02","229","2.2","6","0.00","0.00"
"13:54:56","74.9","55.6","51.1","30.02","201","4","9","0.00","0.00"
"13:59:56","75","55.7","51.1","30.02","195","3.3","6.9","0.00","0.00"
"14:04:57","75.3","55.4","50.1","30.01","183","3","5","0.00","0.00"
"14:09:59","75.5","56.2","51.2","30.01","194","2.3","4.6","0.00","0.00"
"14:14:59","75.9","56.2","50.5","30.01","202","0.8","4","0.00","0.00"
"14:19:59","76.2","55.7","49.3","30.01","173","3.7","9.2","0.00","0.00"
"14:24:56","76","56.4","50.6","30.01","207","3","6","0.00","0.00"
"14:29:57","75.9","55.9","50","30.01","191","3","7","0.00","0.00"
"14:34:58","75.9","56.1","50.3","30.01","185","2.6","6","0.00","0.00"
"14:39:58","76","56.1","50","30.01","179","2","5","0.00","0.00"
"14:44:56","76.2","56.2","50","30.01","180","2.1","5","0.00","0.00"
"14:49:57","76.4","55.9","49.2","29.99","239","2.1","4","0.00","0.00"
"14:54:59","76.6","57","50.7","29.99","197","3","7","0.00","0.00"
"14:59:56","76.6","55.5","48","29.99","140","2.3","4.6","0.00","0.00"
"15:04:56","76.7","56.1","49","29.99","185","2.7","6","0.00","0.00"
"15:09:59","76.6","55.7","48.4","29.99","288","1.6","5","0.00","0.00"
"15:14:56","76.6","57.6","52","29.99","236","1.8","5","0.00","0.00"
"15:19:58","76.5","57.4","51.7","29.98","197","2.1","4","0.00","0.00"
"15:24:55","76.4","57.6","52.2","29.98","182","2.7","5","0.00","0.00"
"15:29:58","76.3","55.7","49.1","29.98","185","2.8","6","0.00","0.00"
"15:34:59","76","56.3","50.6","29.98","205","2.3","5","0.00","0.00"
"15:39:59","75.8","55.8","50","29.98","188","1.3","3.5","0.00","0.00"
"15:44:57","75.7","56.5","51.5","29.98","207","2.3","5","0.00","0.00"
"15:49:56","75.4","55.6","50.2","29.98","206","2.6","5","0.00","0.00"
"15:54:58","75.6","57.7","54","29.98","203","2.1","4","0.00","0.00"
"15:59:56","76","56.8","51.6","29.98","174","2","4","0.00","0.00"
"16:04:57","75.9","56.7","51.5","29.97","184","2.3","4","0.00","0.00"
"16:09:58","75.7","57.7","53.6","29.97","168","1.8","4","0.00","0.00"
"16:14:58","75.7","57.6","53.5","29.97","211","2.8","5","0.00","0.00"
"16:19:59","75.8","57.4","52.8","29.97","194","2.4","6","0.00","0.00"
"16:24:58","75.9","57.3","52.5","29.97","189","2.1","4.6","0.00","0.00"
"16:29:59","76","57.4","52.7","29.97","189","1.4","4","0.00","0.00"
"16:34:56","76","58","53.6","29.97","190","1.2","3.5","0.00","0.00"
"16:39:57","75.6","57.7","53.7","29.97","194","1.9","3.5","0.00","0.00"
"16:44:58","75","57.2","54","29.97","194","1.9","4","0.00","0.00"
"16:49:59","74.5","56.8","54","29.96","177","1.8","4","0.00","0.00"
"16:54:56","74.1","57.3","55.7","29.96","172","1","3.5","0.00","0.00"
"16:59:59","73.8","56.9","55.7","29.96","172","1.6","3.5","0.00","0.00"
"17:04:59","73.6","58.2","58.5","29.96","172","1.4","3.5","0.00","0.00"
"17:09:57","73.5","58.2","58.6","29.96","172","2","3.5","0.00","0.00"
"17:14:59","73.4","57.8","58.3","29.96","173","1.8","3.5","0.00","0.00"
"17:19:59","73.2","57.7","58.5","29.96","172","1.7","3.5","0.00","0.00"
"17:24:57","73","57.3","58","29.96","205","2.6","5","0.00","0.00"
"17:29:56","72.8","57.7","59.2","29.96","207","1.8","3.5","0.00","0.00"
"17:34:58","72.7","57.5","59","29.96","207","1.4","3.5","0.00","0.00"
"17:39:56","72.6","58.1","60.3","29.96","207","1.6","3.5","0.00","0.00"
"17:44:58","72.5","57.7","59.7","29.96","207","1.4","3.5","0.00","0.00"
"17:49:58","72.7","58.7","61.6","29.96","207","1.3","3.5","0.00","0.00"
"17:54:56","73","58.6","60.8","29.96","207","1.4","3.5","0.00","0.00"
"17:59:57","73.2","58","59","29.96","207","1.8","3.5","0.00","0.00"
"18:04:58","73.1","57.3","57.8","29.96","189","2.4","5","0.00","0.00"
"18:09:57","72.8","57.4","58.5","29.96","186","1.9","4.6","0.00","0.00"
"18:14:59","72.4","57.7","59.9","29.96","186","1.6","3","0.00","0.00"
"18:19:59","72.1","57.7","60.6","29.95","186","1.7","3.5","0.00","0.00"
"18:24:58","71.8","57.5","60.8","29.95","186","1","3.5","0.00","0.00"
"18:29:56","71.5","57.4","61","29.95","172","1","3","0.00","0.00"
"18:34:58","71.3","56.8","60.2","29.95","161","1.3","3.5","0.00","0.00"
"18:39:57","71.1","56.9","60.9","29.95","166","1.4","5","0.00","0.00"
"18:44:56","70.8","57.1","61.8","29.95","173","1.8","4","0.00","0.00"
"18:49:58","70.5","57.3","63","29.95","173","1.4","2.3","0.00","0.00"
"18:54:55","70.1","57.1","63.5","29.95","173","1.2","2.3","0.00","0.00"
"18:59:58","69.7","57.2","64.6","29.95","173","1","2.3","0.00","0.00"
"19:04:58","69.2","57.1","65.4","29.95","173","0.5","1.2","0.00","0.00"
"19:09:57","68.7","57.8","68.4","29.95","173","0","1.2","0.00","0.00"
"19:14:56","67.9","57.9","70.1","29.95","173","0","0","0.00","0.00"
"19:19:58","67.1","57.7","71.7","29.95","173","0","0","0.00","0.00"
"19:24:56","66.2","57.6","73.8","29.95","173","0","0","0.00","0.00"
"19:29:58","65.4","57.6","76","29.95","173","0","0","0.00","0.00"
"19:34:57","64.7","57.5","77.5","29.95","173","0","1.2","0.00","0.00"
"19:39:59","64.1","57.4","78.8","29.95","173","0","0","0.00","0.00"
"19:44:57","63.6","57.3","80","29.95","173","0","0","0.00","0.00"
"19:49:56","63.2","57.2","81","29.95","173","0","1.2","0.00","0.00"
"19:54:57","62.8","57.6","82.9","29.95","173","0.6","2","0.00","0.00"
"19:59:56","62.7","57.5","83.2","29.95","173","0.2","1.2","0.00","0.00"
"20:04:57","62.5","57.7","84.2","29.95","173","0","0","0.00","0.00"
"20:09:59","62.3","57.7","85","29.95","173","0","0","0.00","0.00"
"20:14:58","62.1","57.6","85.1","29.96","173","0","0","0.00","0.00"
"20:19:59","61.9","57.7","86","29.96","173","0","0","0.00","0.00"
"20:24:58","61.6","57.6","86.3","29.96","173","0","0","0.00","0.00"
"20:29:57","61.3","57.2","86.3","29.96","173","0","0","0.00","0.00"
"20:34:59","61","57.2","87.5","29.96","173","0","0","0.00","0.00"
"20:39:58","60.8","57.5","88.9","29.96","173","0","0","0.00","0.00"
"20:44:56","60.8","57.5","89","29.96","173","0","0","0.00","0.00"
"20:49:57","60.6","57.3","89","29.96","173","0","0","0.00","0.00"
"20:54:56","60.4","57.1","89","29.96","173","0","0","0.00","0.00"
"20:59:59","60.1","56.8","89","29.97","173","0","0","0.00","0.00"
"21:04:57","59.8","56.7","89.4","29.97","173","0","0","0.00","0.00"
"21:09:59","59.6","56.7","90","29.97","173","0","0","0.00","0.00"
"21:14:58","59.4","56.5","90","29.97","173","0","0","0.00","0.00"
"21:19:56","59.3","56.5","90.3","29.97","173","0","0","0.00","0.00"
"21:24:56","59.1","56.5","91","29.97","173","0","0","0.00","0.00"
"21:29:57","59","56.5","91.2","29.97","173","0","0","0.00","0.00"
"21:34:56","58.9","56.6","92","29.97","173","0","0","0.00","0.00"
"21:39:57","58.8","56.5","92","29.97","173","0","0","0.00","0.00"
"21:44:56","58.7","56.6","92.8","29.97","173","0","0","0.00","0.00"
"21:49:56","58.7","56.8","93.5","29.97","173","0","0","0.00","0.00"
"21:54:57","58.8","57.1","94","29.97","173","0","0","0.00","0.00"
"21:59:59","58.9","57.2","94","29.97","173","0","0","0.00","0.00"
"22:04:56","59","57.3","94","29.97","173","0","0","0.00","0.00"
"22:09:59","59.2","57.5","94","29.97","173","0","0","0.00","0.00"
"22:14:56","59.2","57.5","94","29.97","173","0","0","0.00","0.00"
"22:19:58","59.1","57.2","93.3","29.97","173","0","0","0.00","0.00"
"22:24:58","59.1","57.1","93","29.97","173","0","0","0.00","0.00"
"22:29:56","59","57","93","29.97","173","0","0","0.00","0.00"
"22:34:59","58.9","57.1","93.6","29.97","173","0","0","0.00","0.00"
"22:39:58","59","57.4","94.4","29.97","173","0","0","0.00","0.00"
"22:44:56","59","57.4","94.1","29.98","173","0.1","2.3","0.00","0.00"
"22:49:58","59.1","57.4","94","29.98","182","1.4","3.5","0.00","0.00"
"22:54:56","59","57.1","93.2","29.98","305","0.7","3.5","0.00","0.00"
"22:59:59","59","56.8","92.2","29.99","306","1.1","3.5","0.00","0.00"
"23:04:56","59.2","56.9","92","29.99","321","1.3","3.5","0.00","0.00"
"23:09:57","59.4","56.9","91.2","29.99","317","0.9","4","0.00","0.00"
"23:14:55","59.6","57","91","29.99","315","0.6","2.3","0.00","0.00"
"23:19:57","59.8","57.2","91","29.99","315","0.3","2.3","0.00","0.00"
"23:24:55","59.9","57.3","91","29.99","255","0.4","2.3","0.00","0.00"
"23:29:57","60","57.4","91","29.99","261","0.7","3","0.00","0.00"
"23:34:59","60.1","57.3","90.3","29.99","263","0.4","3","0.00","0.00"
"23:39:58","60.1","56.8","89","29.99","265","0.3","4","0.00","0.00"
"23:44:57","60.1","56.8","89","29.99","266","0","1.2","0.00","0.00"
"23:49:58","60.1","56.8","89","29.99","266","0","2","0.00","0.00"
"23:54:56","60","56.7","89","29.99","266","0.1","2.3","0.00","0.00"
"23:59:58","59.9","56.6","89","29.99","266","0","0","0.00","0.00"
